Time,TemperatureF,DewpointF,PressureIn,WindDirection,WindDirectionDegrees,WindSpeedMPH,WindSpeedGustMPH,Humidity,HourlyPrecipIn,Conditions,Clouds,dailyrainin,SoftwareType,DateUTC
2013-03-23 00:10:00,52.5,30.7,29.56,SE,135,0.0,-999.0,43,-99.99,,,0.00,Acu-Link.com,2013-03-23 05:10:00,
2013-03-23 00:25:00,52.9,-4.4,29.55,SE,135,3.7,-999.0,9,-99.99,,,0.00,Acu-Link.com,2013-03-23 05:25:00,
2013-03-23 00:40:00,53.1,-45.1,29.54,SE,135,2.7,-999.0,1,-99.99,,,0.00,Acu-Link.com,2013-03-23 05:40:00,
2013-03-23 00:55:00,53.4,-44.9,29.55,ESE,112,2.7,-999.0,1,-99.99,,,0.00,Acu-Link.com,2013-03-23 05:55:00,
2013-03-23 01:11:00,53.4,-44.9,29.54,South,180,2.2,-999.0,1,-99.99,,,0.00,Acu-Link.com,2013-03-23 06:11:00,
2013-03-23 01:56:00,54.0,-44.5,29.55,ENE,67,0.0,-999.0,1,-99.99,,,0.00,Acu-Link.com,2013-03-23 06:56:00,
2013-03-23 02:26:00,54.3,-44.3,29.54,ESE,112,0.0,-999.0,1,-99.99,,,0.00,Acu-Link.com,2013-03-23 07:26:00,
2013-03-23 02:41:00,54.5,-44.2,29.53,SSW,202,0.0,-999.0,1,-99.99,,,0.00,Acu-Link.com,2013-03-23 07:41:00,
2013-03-23 02:56:00,54.7,-44.1,29.52,SSE,157,0.0,-999.0,1,-99.99,,,0.00,Acu-Link.com,2013-03-23 07:56:00,
2013-03-23 03:12:00,54.9,-44.0,29.52,SSE,157,2.7,-999.0,1,-99.99,,,0.00,Acu-Link.com,2013-03-23 08:12:00,
2013-03-23 03:27:00,55.0,-43.9,29.52,ESE,112,0.0,-999.0,1,-99.99,,,0.00,Acu-Link.com,2013-03-23 08:27:00,
2013-03-23 03:42:00,55.2,-43.8,29.52,SE,135,0.0,-999.0,1,-99.99,,,0.00,Acu-Link.com,2013-03-23 08:42:00,
2013-03-23 03:57:00,55.2,-43.8,29.52,ESE,112,0.0,-999.0,1,-99.99,,,0.00,Acu-Link.com,2013-03-23 08:57:00,
2013-03-23 04:13:00,55.2,-43.8,29.52,ESE,112,0.0,-999.0,1,-99.99,,,0.00,Acu-Link.com,2013-03-23 09:13:00,
2013-03-23 04:28:00,55.2,-43.8,29.53,ESE,112,0.0,-999.0,1,-99.99,,,0.00,Acu-Link.com,2013-03-23 09:28:00,
2013-03-23 04:43:00,54.9,-44.0,29.53,East,90,0.0,-999.0,1,-99.99,,,0.00,Acu-Link.com,2013-03-23 09:43:00,
2013-03-23 04:58:00,54.7,-44.1,29.53,SE,135,0.0,-999.0,1,-99.99,,,0.00,Acu-Link.com,2013-03-23 09:58:00,
2013-03-23 05:13:00,54.7,-44.1,29.53,ESE,112,0.0,-999.0,1,-99.99,,,0.00,Acu-Link.com,2013-03-23 10:13:00,
2013-03-23 05:28:00,54.5,-44.2,29.54,NW,315,0.0,-999.0,1,-99.99,,,0.00,Acu-Link.com,2013-03-23 10:28:00,
2013-03-23 05:43:00,54.5,-44.2,29.54,NE,45,0.0,-999.0,1,-99.99,,,0.00,Acu-Link.com,2013-03-23 10:43:00,
2013-03-23 05:59:00,54.5,-44.2,29.55,NNE,22,0.0,-999.0,1,-99.99,,,0.00,Acu-Link.com,2013-03-23 10:59:00,
2013-03-23 06:14:00,54.5,-44.2,29.55,ESE,112,0.0,-999.0,1,-99.99,,,0.00,Acu-Link.com,2013-03-23 11:14:00,
2013-03-23 06:29:00,54.5,-44.2,29.54,East,90,0.0,-999.0,1,-99.99,,,0.00,Acu-Link.com,2013-03-23 11:29:00,
2013-03-23 06:44:00,54.5,-44.2,29.54,WSW,247,0.0,-999.0,1,-99.99,,,0.00,Acu-Link.com,2013-03-23 11:44:00,
2013-03-23 06:59:00,54.5,-44.2,29.55,East,90,0.0,-999.0,1,-99.99,,,0.00,Acu-Link.com,2013-03-23 11:59:00,
2013-03-23 07:14:00,54.5,-44.2,29.55,ESE,112,0.0,-999.0,1,-99.99,,,0.00,Acu-Link.com,2013-03-23 12:14:00,
2013-03-23 07:29:00,54.7,-44.1,29.56,ESE,112,0.0,-999.0,1,-99.99,,,0.00,Acu-Link.com,2013-03-23 12:29:00,
2013-03-23 07:44:00,54.9,-44.0,29.56,East,90,0.0,-999.0,1,-99.99,,,0.00,Acu-Link.com,2013-03-23 12:44:00,
2013-03-23 07:59:00,55.2,-43.8,29.56,ESE,112,0.0,-999.0,1,-99.99,,,0.00,Acu-Link.com,2013-03-23 12:59:00,
2013-03-23 08:15:00,55.6,-43.5,29.56,SE,135,0.0,-999.0,1,-99.99,,,0.00,Acu-Link.com,2013-03-23 13:15:00,
2013-03-23 08:30:00,56.1,-43.2,29.57,South,180,3.7,-999.0,1,-99.99,,,0.00,Acu-Link.com,2013-03-23 13:30:00,
2013-03-23 08:45:00,57.4,-42.4,29.57,ESE,112,0.0,-999.0,1,-99.99,,,0.00,Acu-Link.com,2013-03-23 13:45:00,
2013-03-23 09:00:00,59.0,-41.5,29.56,ESE,112,0.0,-999.0,1,-99.99,,,0.00,Acu-Link.com,2013-03-23 14:00:00,
2013-03-23 09:15:00,60.1,-40.8,29.56,ESE,112,0.0,-999.0,1,-99.99,,,0.00,Acu-Link.com,2013-03-23 14:15:00,
2013-03-23 09:30:00,61.7,-39.8,29.56,ESE,112,0.0,-999.0,1,-99.99,,,0.00,Acu-Link.com,2013-03-23 14:30:00,
2013-03-23 09:45:00,63.1,-39.0,29.55,SSW,202,0.0,-999.0,1,-99.99,,,0.00,Acu-Link.com,2013-03-23 14:45:00,
2013-03-23 10:00:00,64.4,-38.2,29.55,East,90,0.0,-999.0,1,-99.99,,,0.00,Acu-Link.com,2013-03-23 15:00:00,
2013-03-23 10:15:00,65.8,63.4,29.57,SE,135,0.0,-999.0,92,-99.99,,,0.00,Acu-Link.com,2013-03-23 15:15:00,
2013-03-23 10:31:00,66.9,0.8,29.57,ESE,112,0.0,-999.0,7,-99.99,,,0.00,Acu-Link.com,2013-03-23 15:31:00,
2013-03-23 10:46:00,67.3,24.9,29.57,SSE,157,0.0,-999.0,20,-99.99,,,0.00,Acu-Link.com,2013-03-23 15:46:00,
2013-03-23 11:16:00,67.3,55.5,29.57,SSE,157,3.2,-999.0,66,-99.99,,,0.00,Acu-Link.com,2013-03-23 16:16:00,
2013-03-23 12:01:00,71.1,-34.2,29.54,SW,225,0.0,-999.0,1,-99.99,,,0.00,Acu-Link.com,2013-03-23 17:01:00,
2013-03-23 12:17:00,71.6,-33.9,29.53,SE,135,0.0,-999.0,1,-99.99,,,0.00,Acu-Link.com,2013-03-23 17:17:00,
2013-03-23 12:32:00,71.8,-33.7,29.53,SW,225,0.0,-999.0,1,-99.99,,,0.00,Acu-Link.com,2013-03-23 17:32:00,
2013-03-23 12:47:00,75.6,61.6,29.52,SSE,157,3.7,-999.0,62,-99.99,,,0.00,Acu-Link.com,2013-03-23 17:47:00,
2013-03-23 13:02:00,75.2,37.0,29.51,ESE,112,0.0,-999.0,25,-99.99,,,0.00,Acu-Link.com,2013-03-23 18:02:00,
2013-03-23 13:17:00,76.1,74.9,29.49,SSE,157,4.2,-999.0,96,-99.99,,,0.00,Acu-Link.com,2013-03-23 18:17:00,
2013-03-23 13:32:00,75.6,75.0,29.48,NNE,22,0.0,-999.0,98,-99.99,,,0.00,Acu-Link.com,2013-03-23 18:32:00,
2013-03-23 13:47:00,75.6,75.0,29.46,South,180,2.2,-999.0,98,-99.99,,,0.00,Acu-Link.com,2013-03-23 18:47:00,
2013-03-23 14:02:00,76.6,76.0,29.45,SSE,157,5.8,-999.0,98,-99.99,,,0.00,Acu-Link.com,2013-03-23 19:02:00,
2013-03-23 14:17:00,78.4,38.6,29.44,SSW,202,0.0,-999.0,24,-99.99,,,0.00,Acu-Link.com,2013-03-23 19:17:00,
2013-03-23 14:33:00,79.3,-29.3,29.43,ESE,112,2.7,-999.0,1,-99.99,,,0.00,Acu-Link.com,2013-03-23 19:33:00,
2013-03-23 14:48:00,76.6,72.1,29.43,ESE,112,0.0,-999.0,86,-99.99,,,0.00,Acu-Link.com,2013-03-23 19:48:00,
2013-03-23 15:03:00,76.8,71.9,29.42,SE,135,0.0,-999.0,85,-99.99,,,0.00,Acu-Link.com,2013-03-23 20:03:00,
2013-03-23 15:18:00,77.0,72.8,29.41,NE,45,0.0,-999.0,87,-99.99,,,0.00,Acu-Link.com,2013-03-23 20:18:00,
2013-03-23 15:33:00,77.9,-30.1,29.40,WSW,247,0.0,-999.0,1,-99.99,,,0.00,Acu-Link.com,2013-03-23 20:33:00,
2013-03-23 15:48:00,77.5,-30.3,29.39,ESE,112,0.0,-999.0,1,-99.99,,,0.00,Acu-Link.com,2013-03-23 20:48:00,
2013-03-23 16:03:00,74.1,-5.8,29.38,NE,45,0.0,-999.0,4,-99.99,,,0.00,Acu-Link.com,2013-03-23 21:03:00,
2013-03-23 16:18:00,72.9,-33.1,29.38,SE,135,0.0,-999.0,1,-99.99,,,0.00,Acu-Link.com,2013-03-23 21:18:00,
2013-03-23 16:33:00,72.1,-33.6,29.38,ENE,67,0.0,-999.0,1,-99.99,,,0.00,Acu-Link.com,2013-03-23 21:33:00,
2013-03-23 16:49:00,72.0,-33.6,29.37,NW,315,0.0,-999.0,1,-99.99,,,0.00,Acu-Link.com,2013-03-23 21:49:00,
2013-03-23 17:04:00,72.0,-33.6,29.36,East,90,0.0,-999.0,1,-99.99,,,0.00,Acu-Link.com,2013-03-23 22:04:00,
2013-03-23 17:19:00,70.5,67.1,29.37,ESE,112,0.0,-999.0,89,-99.99,,,0.00,Acu-Link.com,2013-03-23 22:19:00,
2013-03-23 17:34:00,69.6,-35.1,29.37,SE,135,0.0,-999.0,1,-99.99,,,0.00,Acu-Link.com,2013-03-23 22:34:00,
2013-03-23 17:49:00,68.5,-35.7,29.35,East,90,0.0,-999.0,1,-99.99,,,0.04,Acu-Link.com,2013-03-23 22:49:00,
2013-03-23 18:04:00,67.8,-36.1,29.35,ESE,112,0.0,-999.0,1,-99.99,,,0.04,Acu-Link.com,2013-03-23 23:04:00,
2013-03-23 18:19:00,67.3,-36.4,29.35,East,90,0.0,-999.0,1,-99.99,,,0.04,Acu-Link.com,2013-03-23 23:19:00,
2013-03-23 18:34:00,67.1,-36.6,29.34,East,90,0.0,-999.0,1,-99.99,,,0.04,Acu-Link.com,2013-03-23 23:34:00,
2013-03-23 18:49:00,66.6,-36.9,29.33,ESE,112,0.0,-999.0,1,-99.99,,,0.04,Acu-Link.com,2013-03-23 23:49:00,
2013-03-23 19:05:00,66.4,-37.0,29.33,ESE,112,0.0,-999.0,1,-99.99,,,0.04,Acu-Link.com,2013-03-24 00:05:00,
2013-03-23 19:20:00,66.0,-37.2,29.31,East,90,0.0,-999.0,1,-99.99,,,0.04,Acu-Link.com,2013-03-24 00:20:00,
2013-03-23 19:35:00,65.5,-37.5,29.32,ESE,112,0.0,-999.0,1,-99.99,,,0.04,Acu-Link.com,2013-03-24 00:35:00,
2013-03-23 19:50:00,65.1,-37.8,29.32,SSE,157,1.7,-999.0,1,-99.99,,,0.04,Acu-Link.com,2013-03-24 00:50:00,
2013-03-23 20:05:00,64.8,-37.9,29.34,ESE,112,0.0,-999.0,1,-99.99,,,0.05,Acu-Link.com,2013-03-24 01:05:00,
2013-03-23 20:20:00,64.6,-38.1,29.35,NE,45,0.0,-999.0,1,-99.99,,,0.05,Acu-Link.com,2013-03-24 01:20:00,
2013-03-23 20:35:00,64.2,-38.3,29.33,NE,45,0.0,-999.0,1,-99.99,,,0.05,Acu-Link.com,2013-03-24 01:35:00,
2013-03-23 20:50:00,64.0,-38.4,29.32,NE,45,0.0,-999.0,1,-99.99,,,0.05,Acu-Link.com,2013-03-24 01:50:00,
2013-03-23 21:05:00,63.9,-38.5,29.33,NE,45,0.0,-999.0,1,-99.99,,,0.07,Acu-Link.com,2013-03-24 02:05:00,
2013-03-23 21:20:00,63.3,-38.9,29.33,NE,45,0.0,-999.0,1,-99.99,,,0.13,Acu-Link.com,2013-03-24 02:20:00,
2013-03-23 21:36:00,63.1,-39.0,29.36,West,270,6.3,-999.0,1,-99.99,,,0.14,Acu-Link.com,2013-03-24 02:36:00,
2013-03-23 22:21:00,61.0,-40.2,29.34,East,90,0.0,-999.0,1,-99.99,,,0.45,Acu-Link.com,2013-03-24 03:21:00,
2013-03-23 22:36:00,60.6,-40.5,29.35,NE,45,0.0,-999.0,1,-99.99,,,0.46,Acu-Link.com,2013-03-24 03:36:00,
2013-03-23 22:51:00,60.4,-40.6,29.34,ENE,67,0.0,-999.0,1,-99.99,,,0.46,Acu-Link.com,2013-03-24 03:51:00,
2013-03-23 23:07:00,60.3,-40.7,29.34,NE,45,0.0,-999.0,1,-99.99,,,0.47,Acu-Link.com,2013-03-24 04:07:00,
2013-03-23 23:22:00,60.1,-40.8,29.33,East,90,0.0,-999.0,1,-99.99,,,0.47,Acu-Link.com,2013-03-24 04:22:00,
2013-03-23 23:37:00,59.9,-40.9,29.33,NE,45,0.0,-999.0,1,-99.99,,,0.47,Acu-Link.com,2013-03-24 04:37:00,
2013-03-23 23:52:00,59.5,-41.2,29.36,WNW,292,0.0,-999.0,1,-99.99,,,0.47,Acu-Link.com,2013-03-24 04:52:00,